Year,Month,Day,Hour,Minute,Value (Times are PST for temperature in C)
2014,02,09,00,00,2.60
2014,02,09,00,01,2.70
2014,02,09,00,02,2.70
2014,02,09,00,03,2.70
2014,02,09,00,04,2.70
2014,02,09,00,05,2.70
2014,02,09,00,06,2.70
2014,02,09,00,07,2.70
2014,02,09,00,08,2.70
2014,02,09,00,09,2.70
2014,02,09,00,10,2.70
2014,02,09,00,11,2.70
2014,02,09,00,12,2.70
2014,02,09,00,13,2.70
2014,02,09,00,14,2.70
2014,02,09,00,15,2.70
2014,02,09,00,16,2.70
2014,02,09,00,17,2.70
2014,02,09,00,18,2.70
2014,02,09,00,19,2.70
2014,02,09,00,20,2.70
2014,02,09,00,21,2.70
2014,02,09,00,22,2.70
2014,02,09,00,23,2.70
2014,02,09,00,24,2.70
2014,02,09,00,25,2.70
2014,02,09,00,26,2.70
2014,02,09,00,27,2.70
2014,02,09,00,28,2.70
2014,02,09,00,29,2.70
2014,02,09,00,30,2.70
2014,02,09,00,31,2.70
2014,02,09,00,32,2.70
2014,02,09,00,33,2.70
2014,02,09,00,34,2.70
2014,02,09,00,35,2.80
2014,02,09,00,36,2.80
2014,02,09,00,37,2.80
2014,02,09,00,38,2.80
2014,02,09,00,39,2.70
2014,02,09,00,40,2.70
2014,02,09,00,41,2.70
2014,02,09,00,42,2.70
2014,02,09,00,43,2.70
2014,02,09,00,44,2.70
2014,02,09,00,45,2.70
2014,02,09,00,46,2.70
2014,02,09,00,47,2.70
2014,02,09,00,48,2.70
2014,02,09,00,49,2.80
2014,02,09,00,50,2.80
2014,02,09,00,51,2.80
2014,02,09,00,52,2.80
2014,02,09,00,53,2.80
2014,02,09,00,54,2.80
2014,02,09,00,55,2.80
2014,02,09,00,56,2.80
2014,02,09,00,57,2.80
2014,02,09,00,58,2.80
2014,02,09,00,59,2.80
2014,02,09,01,00,2.70
2014,02,09,01,01,2.70
2014,02,09,01,02,2.70
2014,02,09,01,03,2.70
2014,02,09,01,04,2.70
2014,02,09,01,05,2.70
2014,02,09,01,06,2.70
2014,02,09,01,07,2.70
2014,02,09,01,08,2.70
2014,02,09,01,09,2.70
2014,02,09,01,10,2.60
2014,02,09,01,11,2.60
2014,02,09,01,12,2.60
2014,02,09,01,13,2.60
2014,02,09,01,14,2.60
2014,02,09,01,15,2.50
2014,02,09,01,16,2.50
2014,02,09,01,17,2.40
2014,02,09,01,18,2.40
2014,02,09,01,19,2.40
2014,02,09,01,20,2.30
2014,02,09,01,21,2.30
2014,02,09,01,22,2.30
2014,02,09,01,23,2.30
2014,02,09,01,24,2.30
2014,02,09,01,25,2.30
2014,02,09,01,26,2.30
2014,02,09,01,27,2.30
2014,02,09,01,28,2.30
2014,02,09,01,29,2.30
2014,02,09,01,30,2.30
2014,02,09,01,31,2.30
2014,02,09,01,32,2.30
2014,02,09,01,33,2.30
2014,02,09,01,34,2.30
2014,02,09,01,35,2.20
2014,02,09,01,36,2.20
2014,02,09,01,37,2.20
2014,02,09,01,38,2.20
2014,02,09,01,39,2.20
2014,02,09,01,40,2.20
2014,02,09,01,41,2.20
2014,02,09,01,42,2.20
2014,02,09,01,43,2.20
2014,02,09,01,44,2.20
2014,02,09,01,45,2.20
2014,02,09,01,46,2.20
2014,02,09,01,47,2.20
2014,02,09,01,48,2.20
2014,02,09,01,49,2.20
2014,02,09,01,50,2.20
2014,02,09,01,51,2.20
2014,02,09,01,52,2.20
2014,02,09,01,53,2.20
2014,02,09,01,54,2.20
2014,02,09,01,55,2.20
2014,02,09,01,56,2.20
2014,02,09,01,57,2.20
2014,02,09,01,58,2.20
2014,02,09,01,59,2.10
2014,02,09,02,00,2.10
2014,02,09,02,01,2.10
2014,02,09,02,02,2.10
2014,02,09,02,03,2.10
2014,02,09,02,04,2.00
2014,02,09,02,05,2.00
2014,02,09,02,06,2.00
2014,02,09,02,07,2.00
2014,02,09,02,08,1.90
2014,02,09,02,09,1.90
2014,02,09,02,10,1.90
2014,02,09,02,11,1.90
2014,02,09,02,12,1.80
2014,02,09,02,13,1.80
2014,02,09,02,14,1.80
2014,02,09,02,15,1.70
2014,02,09,02,16,1.70
2014,02,09,02,17,1.70
2014,02,09,02,18,1.70
2014,02,09,02,19,1.60
2014,02,09,02,20,1.60
2014,02,09,02,21,1.60
2014,02,09,02,22,1.50
2014,02,09,02,23,1.50
2014,02,09,02,24,1.40
2014,02,09,02,25,1.40
2014,02,09,02,26,1.40
2014,02,09,02,27,1.40
2014,02,09,02,28,1.40
2014,02,09,02,29,1.30
2014,02,09,02,30,1.30
2014,02,09,02,31,1.30
2014,02,09,02,32,1.30
2014,02,09,02,33,1.20
2014,02,09,02,34,1.20
2014,02,09,02,35,1.20
2014,02,09,02,36,1.20
2014,02,09,02,37,1.10
2014,02,09,02,38,1.10
2014,02,09,02,39,1.10
2014,02,09,02,40,1.10
2014,02,09,02,41,1.10
2014,02,09,02,42,1.10
2014,02,09,02,43,1.10
2014,02,09,02,44,1.10
2014,02,09,02,45,1.10
2014,02,09,02,46,1.00
2014,02,09,02,47,1.00
2014,02,09,02,48,1.00
2014,02,09,02,49,0.90
2014,02,09,02,50,0.90
2014,02,09,02,51,0.90
2014,02,09,02,52,0.90
2014,02,09,02,53,0.90
2014,02,09,02,54,0.90
2014,02,09,02,55,0.90
2014,02,09,02,56,0.90
2014,02,09,02,57,0.80
2014,02,09,02,58,0.80
2014,02,09,02,59,0.80
2014,02,09,03,00,0.80
2014,02,09,03,01,0.80
2014,02,09,03,02,0.80
2014,02,09,03,06,0.80
2014,02,09,03,07,0.80
2014,02,09,03,08,0.80
2014,02,09,03,09,0.80
2014,02,09,03,10,0.80
2014,02,09,03,11,0.80
2014,02,09,03,12,0.80
2014,02,09,03,13,0.80
2014,02,09,03,14,0.80
2014,02,09,03,15,0.80
2014,02,09,03,16,0.80
2014,02,09,03,17,0.80
2014,02,09,03,18,0.90
2014,02,09,03,19,0.90
2014,02,09,03,20,0.90
2014,02,09,03,21,0.90
2014,02,09,03,22,0.90
2014,02,09,03,23,0.90
2014,02,09,03,24,1.00
2014,02,09,03,25,1.00
2014,02,09,03,26,1.10
2014,02,09,03,27,1.10
2014,02,09,03,28,1.20
2014,02,09,03,29,1.20
2014,02,09,03,30,1.30
2014,02,09,03,31,1.30
2014,02,09,03,32,1.30
2014,02,09,03,33,1.30
2014,02,09,03,34,1.20
2014,02,09,03,35,1.20
2014,02,09,03,36,1.20
2014,02,09,03,37,1.20
2014,02,09,03,38,1.20
2014,02,09,03,39,1.10
2014,02,09,03,40,1.10
2014,02,09,03,41,1.10
2014,02,09,03,42,1.10
2014,02,09,03,43,1.20
2014,02,09,03,44,1.20
2014,02,09,03,45,1.20
2014,02,09,03,46,1.20
2014,02,09,03,47,1.20
2014,02,09,03,48,1.20
2014,02,09,03,49,1.20
2014,02,09,03,50,1.20
2014,02,09,03,51,1.20
2014,02,09,03,52,1.20
2014,02,09,03,53,1.20
2014,02,09,03,54,1.20
2014,02,09,03,55,1.20
2014,02,09,03,56,1.20
2014,02,09,03,57,1.20
2014,02,09,03,58,1.20
2014,02,09,03,59,1.20
2014,02,09,04,00,1.20
2014,02,09,04,01,1.20
2014,02,09,04,02,1.20
2014,02,09,04,03,1.20
2014,02,09,04,04,1.20
2014,02,09,04,05,1.30
2014,02,09,04,06,1.30
2014,02,09,04,07,1.30
2014,02,09,04,08,1.30
2014,02,09,04,09,1.40
2014,02,09,04,10,1.40
2014,02,09,04,11,1.40
2014,02,09,04,12,1.40
2014,02,09,04,13,1.40
2014,02,09,04,14,1.40
2014,02,09,04,15,1.40
2014,02,09,04,16,1.40
2014,02,09,04,17,1.40
2014,02,09,04,18,1.40
2014,02,09,04,19,1.40
2014,02,09,04,20,1.40
2014,02,09,04,21,1.40
2014,02,09,04,22,1.40
2014,02,09,04,23,1.40
2014,02,09,04,24,1.40
2014,02,09,04,25,1.40
2014,02,09,04,26,1.40
2014,02,09,04,27,1.40
2014,02,09,04,28,1.40
2014,02,09,04,29,1.40
2014,02,09,04,30,1.40
2014,02,09,04,31,1.40
2014,02,09,04,32,1.40
2014,02,09,04,33,1.40
2014,02,09,04,34,1.40
2014,02,09,04,35,1.40
2014,02,09,04,36,1.40
2014,02,09,04,37,1.40
2014,02,09,04,38,1.40
2014,02,09,04,39,1.40
2014,02,09,04,40,1.40
2014,02,09,04,41,1.40
2014,02,09,04,42,1.40
2014,02,09,04,43,1.40
2014,02,09,04,44,1.40
2014,02,09,04,45,1.40
2014,02,09,04,46,1.50
2014,02,09,04,47,1.50
2014,02,09,04,48,1.50
2014,02,09,04,49,1.50
2014,02,09,04,50,1.50
2014,02,09,04,51,1.50
2014,02,09,04,52,1.50
2014,02,09,04,53,1.50
2014,02,09,04,54,1.50
2014,02,09,04,55,1.60
2014,02,09,04,56,1.50
2014,02,09,04,57,1.60
2014,02,09,04,58,1.60
2014,02,09,04,59,1.60
2014,02,09,05,00,1.60
2014,02,09,05,01,1.60
2014,02,09,05,02,1.60
2014,02,09,05,03,1.60
2014,02,09,05,04,1.60
2014,02,09,05,05,1.60
2014,02,09,05,06,1.60
2014,02,09,05,07,1.60
2014,02,09,05,08,1.70
2014,02,09,05,09,1.70
2014,02,09,05,10,1.80
2014,02,09,05,11,1.80
2014,02,09,05,12,1.80
2014,02,09,05,13,1.80
2014,02,09,05,14,1.80
2014,02,09,05,15,1.90
2014,02,09,05,16,1.90
2014,02,09,05,17,1.90
2014,02,09,05,18,1.90
2014,02,09,05,19,1.90
2014,02,09,05,20,1.90
2014,02,09,05,21,2.00
2014,02,09,05,22,2.00
2014,02,09,05,23,2.00
2014,02,09,05,24,2.00
2014,02,09,05,25,2.00
2014,02,09,05,26,2.00
2014,02,09,05,27,2.00
2014,02,09,05,28,2.00
2014,02,09,05,29,2.00
2014,02,09,05,30,2.00
2014,02,09,05,31,1.90
2014,02,09,05,32,1.90
2014,02,09,05,33,1.90
2014,02,09,05,34,1.90
2014,02,09,05,35,1.90
2014,02,09,05,36,1.90
2014,02,09,05,37,1.90
2014,02,09,05,38,1.90
2014,02,09,05,39,1.90
2014,02,09,05,40,1.90
2014,02,09,05,41,1.90
2014,02,09,05,42,1.90
2014,02,09,05,43,1.90
2014,02,09,05,44,1.90
2014,02,09,05,45,1.90
2014,02,09,05,46,1.90
2014,02,09,05,47,1.90
2014,02,09,05,48,1.90
2014,02,09,05,49,1.90
2014,02,09,05,50,1.90
2014,02,09,05,51,1.90
2014,02,09,05,52,1.90
2014,02,09,05,53,1.90
2014,02,09,05,54,1.90
2014,02,09,05,55,1.90
2014,02,09,05,56,1.90
2014,02,09,05,57,1.90
2014,02,09,05,58,1.90
2014,02,09,05,59,1.90
2014,02,09,06,00,1.90
2014,02,09,06,01,1.90
2014,02,09,06,02,1.90
2014,02,09,06,03,1.90
2014,02,09,06,04,1.90
2014,02,09,06,05,1.90
2014,02,09,06,06,1.90
2014,02,09,06,07,1.90
2014,02,09,06,08,1.90
2014,02,09,06,09,1.90
2014,02,09,06,10,1.90
2014,02,09,06,11,1.90
2014,02,09,06,12,1.90
2014,02,09,06,13,1.90
2014,02,09,06,14,1.90
2014,02,09,06,15,1.90
2014,02,09,06,16,1.90
2014,02,09,06,17,1.90
2014,02,09,06,18,1.90
2014,02,09,06,19,1.90
2014,02,09,06,20,1.90
2014,02,09,06,21,1.90
2014,02,09,06,22,1.90
2014,02,09,06,23,1.90
2014,02,09,06,24,1.90
2014,02,09,06,25,1.90
2014,02,09,06,26,1.90
2014,02,09,06,27,1.90
2014,02,09,06,28,1.90
2014,02,09,06,29,1.90
2014,02,09,06,30,1.90
2014,02,09,06,31,1.90
2014,02,09,06,32,1.90
2014,02,09,06,33,2.00
2014,02,09,06,34,2.00
2014,02,09,06,35,2.00
2014,02,09,06,36,2.00
2014,02,09,06,37,2.00
2014,02,09,06,38,2.00
2014,02,09,06,39,2.00
2014,02,09,06,40,2.00
2014,02,09,06,41,2.00
2014,02,09,06,42,2.00
2014,02,09,06,43,2.10
2014,02,09,06,44,2.10
2014,02,09,06,45,2.10
2014,02,09,06,46,2.10
2014,02,09,06,47,2.10
2014,02,09,06,48,2.10
2014,02,09,06,49,2.10
2014,02,09,06,50,2.10
2014,02,09,06,51,2.10
2014,02,09,06,52,2.10
2014,02,09,06,53,2.10
2014,02,09,06,54,2.10
2014,02,09,06,55,2.10
2014,02,09,06,56,2.10
2014,02,09,06,57,2.10
2014,02,09,06,58,2.10
2014,02,09,06,59,2.10
2014,02,09,07,00,2.10
2014,02,09,07,01,2.10
2014,02,09,07,02,2.10
2014,02,09,07,03,2.10
2014,02,09,07,04,2.10
2014,02,09,07,05,2.10
2014,02,09,07,06,2.10
2014,02,09,07,07,2.10
2014,02,09,07,08,2.10
2014,02,09,07,09,2.10
2014,02,09,07,10,2.10
2014,02,09,07,11,2.10
2014,02,09,07,12,2.10
2014,02,09,07,13,2.10
2014,02,09,07,14,2.10
2014,02,09,07,15,2.10
2014,02,09,07,16,2.10
2014,02,09,07,17,2.10
2014,02,09,07,18,2.10
2014,02,09,07,19,2.10
2014,02,09,07,20,2.10
2014,02,09,07,21,2.10
2014,02,09,07,22,2.10
2014,02,09,07,23,2.10
2014,02,09,07,24,2.10
2014,02,09,07,25,2.10
2014,02,09,07,26,2.10
2014,02,09,07,27,2.10
2014,02,09,07,28,2.10
2014,02,09,07,29,2.10
2014,02,09,07,30,2.10
2014,02,09,07,31,2.10
2014,02,09,07,32,2.10
2014,02,09,07,33,2.10
2014,02,09,07,34,2.10
2014,02,09,07,35,2.10
2014,02,09,07,36,2.10
2014,02,09,07,37,2.10
2014,02,09,07,38,2.10
2014,02,09,07,39,2.10
2014,02,09,07,40,2.10
2014,02,09,07,41,2.10
2014,02,09,07,42,2.10
2014,02,09,07,43,2.10
2014,02,09,07,44,2.10
2014,02,09,07,45,2.10
2014,02,09,07,46,2.10
2014,02,09,07,47,2.10
2014,02,09,07,48,2.10
2014,02,09,07,49,2.10
2014,02,09,07,50,2.10
2014,02,09,07,51,2.10
2014,02,09,07,52,2.10
2014,02,09,07,53,2.10
2014,02,09,07,54,2.10
2014,02,09,07,55,2.10
2014,02,09,07,56,2.10
2014,02,09,07,57,2.10
2014,02,09,07,58,2.10
2014,02,09,07,59,2.10
2014,02,09,08,00,2.10
2014,02,09,08,01,2.10
2014,02,09,08,02,2.10
2014,02,09,08,03,2.10
2014,02,09,08,04,2.10
2014,02,09,08,05,2.10
2014,02,09,08,06,2.10
2014,02,09,08,07,2.10
2014,02,09,08,08,2.10
2014,02,09,08,09,2.10
2014,02,09,08,10,2.20
2014,02,09,08,11,2.20
2014,02,09,08,12,2.20
2014,02,09,08,13,2.20
2014,02,09,08,14,2.20
2014,02,09,08,15,2.20
2014,02,09,08,16,2.20
2014,02,09,08,17,2.20
2014,02,09,08,18,2.20
2014,02,09,08,19,2.20
2014,02,09,08,20,2.20
2014,02,09,08,21,2.20
2014,02,09,08,22,2.20
2014,02,09,08,23,2.20
2014,02,09,08,24,2.20
2014,02,09,08,25,2.20
2014,02,09,08,26,2.20
2014,02,09,08,27,2.20
2014,02,09,08,28,2.20
2014,02,09,08,29,2.20
2014,02,09,08,30,2.10
2014,02,09,08,31,2.10
2014,02,09,08,32,2.10
2014,02,09,08,33,2.10
2014,02,09,08,34,2.10
2014,02,09,08,35,2.10
2014,02,09,08,36,2.20
2014,02,09,08,37,2.20
2014,02,09,08,38,2.20
2014,02,09,08,39,2.20
2014,02,09,08,40,2.20
2014,02,09,08,41,2.20
2014,02,09,08,42,2.20
2014,02,09,08,43,2.20
2014,02,09,08,44,2.20
2014,02,09,08,45,2.20
2014,02,09,08,46,2.20
2014,02,09,08,47,2.20
2014,02,09,08,48,2.20
2014,02,09,08,49,2.20
2014,02,09,08,50,2.20
2014,02,09,08,51,2.20
2014,02,09,08,52,2.20
2014,02,09,08,53,2.20
2014,02,09,08,54,2.20
2014,02,09,08,55,2.20
2014,02,09,08,56,2.20
2014,02,09,08,57,2.20
2014,02,09,08,58,2.20
2014,02,09,08,59,2.20
2014,02,09,09,00,2.20
2014,02,09,09,01,2.20
2014,02,09,09,02,2.20
2014,02,09,09,03,2.20
2014,02,09,09,04,2.20
2014,02,09,09,05,2.20
2014,02,09,09,06,2.20
2014,02,09,09,07,2.20
2014,02,09,09,08,2.20
2014,02,09,09,09,2.20
2014,02,09,09,10,2.20
2014,02,09,09,11,2.20
2014,02,09,09,12,2.20
2014,02,09,09,13,2.20
2014,02,09,09,14,2.20
2014,02,09,09,15,2.20
2014,02,09,09,16,2.20
2014,02,09,09,17,2.20
2014,02,09,09,18,2.20
2014,02,09,09,19,2.20
2014,02,09,09,20,2.20
2014,02,09,09,21,2.20
2014,02,09,09,22,2.20
2014,02,09,09,23,2.20
2014,02,09,09,24,2.20
2014,02,09,09,25,2.20
2014,02,09,09,26,2.20
2014,02,09,09,27,2.20
2014,02,09,09,28,2.20
2014,02,09,09,29,2.20
2014,02,09,09,30,2.20
2014,02,09,09,31,2.20
2014,02,09,09,32,2.20
2014,02,09,09,33,2.20
2014,02,09,09,34,2.20
2014,02,09,09,35,2.20
2014,02,09,09,36,2.20
2014,02,09,09,37,2.20
2014,02,09,09,38,2.20
2014,02,09,09,39,2.20
2014,02,09,09,40,2.20
2014,02,09,09,41,2.20
2014,02,09,09,42,2.20
2014,02,09,09,43,2.20
2014,02,09,09,44,2.20
2014,02,09,09,45,2.20
2014,02,09,09,46,2.20
2014,02,09,09,47,2.20
2014,02,09,09,48,2.20
2014,02,09,09,49,2.20
2014,02,09,09,50,2.20
2014,02,09,09,51,2.20
2014,02,09,09,52,2.20
2014,02,09,09,53,2.20
2014,02,09,09,54,2.20
2014,02,09,09,55,2.20
2014,02,09,09,56,2.20
2014,02,09,09,57,2.20
2014,02,09,09,58,2.30
2014,02,09,09,59,2.30
2014,02,09,10,00,2.30
2014,02,09,10,01,2.30
2014,02,09,10,02,2.30
2014,02,09,10,03,2.30
2014,02,09,10,04,2.30
2014,02,09,10,05,2.30
2014,02,09,10,06,2.30
2014,02,09,10,07,2.30
2014,02,09,10,08,2.30
2014,02,09,10,09,2.30
2014,02,09,10,10,2.40
2014,02,09,10,11,2.30
2014,02,09,10,12,2.30
2014,02,09,10,13,2.30
2014,02,09,10,14,2.30
2014,02,09,10,15,2.30
2014,02,09,10,16,2.30
2014,02,09,10,17,2.30
2014,02,09,10,18,2.30
2014,02,09,10,19,2.40
2014,02,09,10,20,2.40
2014,02,09,10,21,2.40
2014,02,09,10,22,2.40
2014,02,09,10,23,2.30
2014,02,09,10,24,2.40
2014,02,09,10,25,2.40
2014,02,09,10,26,2.40
2014,02,09,10,27,2.40
2014,02,09,10,28,2.40
2014,02,09,10,29,2.40
2014,02,09,10,30,2.40
2014,02,09,10,31,2.40
2014,02,09,10,32,2.40
2014,02,09,10,33,2.50
2014,02,09,10,34,2.50
2014,02,09,10,35,2.50
2014,02,09,10,36,2.60
2014,02,09,10,37,2.60
2014,02,09,10,38,2.60
2014,02,09,10,39,2.60
2014,02,09,10,40,2.60
2014,02,09,10,41,2.60
2014,02,09,10,42,2.60
2014,02,09,10,43,2.60
2014,02,09,10,44,2.60
2014,02,09,10,45,2.60
2014,02,09,10,46,2.50
2014,02,09,10,47,2.50
2014,02,09,10,48,2.60
2014,02,09,10,49,2.60
2014,02,09,10,50,2.60
2014,02,09,10,51,2.60
2014,02,09,10,52,2.60
2014,02,09,10,53,2.60
2014,02,09,10,54,2.60
2014,02,09,10,55,2.60
2014,02,09,10,56,2.60
2014,02,09,10,57,2.60
2014,02,09,10,58,2.60
2014,02,09,10,59,2.60
2014,02,09,11,00,2.60
2014,02,09,11,01,2.60
2014,02,09,11,02,2.60
2014,02,09,11,03,2.70
2014,02,09,11,04,2.70
2014,02,09,11,05,2.70
2014,02,09,11,06,2.70
2014,02,09,11,07,2.70
2014,02,09,11,08,2.60
2014,02,09,11,09,2.60
2014,02,09,11,10,2.60
2014,02,09,11,11,2.70
2014,02,09,11,12,2.70
2014,02,09,11,13,2.70
2014,02,09,11,14,2.70
2014,02,09,11,15,2.70
2014,02,09,11,16,2.70
2014,02,09,11,17,2.70
2014,02,09,11,18,2.70
2014,02,09,11,19,2.70
2014,02,09,11,20,2.70
2014,02,09,11,21,2.70
2014,02,09,11,22,2.70
2014,02,09,11,23,2.70
2014,02,09,11,24,2.70
2014,02,09,11,25,2.70
2014,02,09,11,26,2.70
2014,02,09,11,27,2.70
2014,02,09,11,28,2.70
2014,02,09,11,29,2.70
2014,02,09,11,30,2.70
2014,02,09,11,31,2.70
2014,02,09,11,32,2.70
2014,02,09,11,33,2.70
2014,02,09,11,34,2.70
2014,02,09,11,35,2.70
2014,02,09,11,36,2.70
2014,02,09,11,37,2.70
2014,02,09,11,38,2.70
2014,02,09,11,39,2.80
2014,02,09,11,40,2.80
2014,02,09,11,41,2.80
2014,02,09,11,42,2.80
2014,02,09,11,43,2.80
2014,02,09,11,44,2.80
2014,02,09,11,45,2.80
2014,02,09,11,46,2.80
2014,02,09,11,47,2.80
2014,02,09,11,48,2.80
2014,02,09,11,49,2.80
2014,02,09,11,50,2.90
2014,02,09,11,51,2.90
2014,02,09,11,52,2.90
2014,02,09,11,53,2.90
2014,02,09,11,54,2.90
2014,02,09,11,55,2.90
2014,02,09,11,56,2.90
2014,02,09,11,57,2.90
2014,02,09,11,58,2.90
2014,02,09,11,59,2.90
2014,02,09,12,00,2.90
2014,02,09,12,01,2.90
2014,02,09,12,02,2.90
2014,02,09,12,03,2.90
2014,02,09,12,04,2.90
2014,02,09,12,05,2.90
2014,02,09,12,06,2.90
2014,02,09,12,07,2.90
2014,02,09,12,08,2.90
2014,02,09,12,09,2.90
2014,02,09,12,10,2.90
2014,02,09,12,11,2.90
2014,02,09,12,12,2.80
2014,02,09,12,13,2.80
2014,02,09,12,14,2.80
2014,02,09,12,15,2.80
2014,02,09,12,16,2.80
2014,02,09,12,17,2.80
2014,02,09,12,18,2.80
2014,02,09,12,19,2.90
2014,02,09,12,20,2.90
2014,02,09,12,21,2.90
2014,02,09,12,22,2.90
2014,02,09,12,23,3.00
2014,02,09,12,24,3.00
2014,02,09,12,25,3.10
2014,02,09,12,26,3.10
2014,02,09,12,27,3.10
2014,02,09,12,28,3.00
2014,02,09,12,29,3.00
2014,02,09,12,30,3.00
2014,02,09,12,31,3.00
2014,02,09,12,32,3.00
2014,02,09,12,33,3.00
2014,02,09,12,34,2.90
2014,02,09,12,35,2.90
2014,02,09,12,36,3.00
2014,02,09,12,37,3.00
2014,02,09,12,38,3.00
2014,02,09,12,39,3.00
2014,02,09,12,40,3.00
2014,02,09,12,41,3.00
2014,02,09,12,42,3.00
2014,02,09,12,43,3.00
2014,02,09,12,44,3.00
2014,02,09,12,45,3.00
2014,02,09,12,46,3.00
2014,02,09,12,47,3.00
2014,02,09,12,48,3.00
2014,02,09,12,49,3.00
2014,02,09,12,50,3.00
2014,02,09,12,51,2.90
2014,02,09,12,52,2.90
2014,02,09,12,53,3.00
2014,02,09,12,54,3.00
2014,02,09,12,55,3.00
2014,02,09,12,56,3.00
2014,02,09,12,57,3.00
2014,02,09,12,58,3.00
2014,02,09,12,59,3.00
2014,02,09,13,00,3.00
2014,02,09,13,01,3.00
2014,02,09,13,02,3.00
2014,02,09,13,03,3.00
2014,02,09,13,04,3.00
2014,02,09,13,05,2.90
2014,02,09,13,06,2.90
2014,02,09,13,07,2.90
2014,02,09,13,08,2.90
2014,02,09,13,09,2.90
2014,02,09,13,10,2.90
2014,02,09,13,11,2.90
2014,02,09,13,12,2.90
2014,02,09,13,13,2.90
2014,02,09,13,14,2.90
2014,02,09,13,15,2.90
2014,02,09,13,16,2.90
2014,02,09,13,17,2.90
2014,02,09,13,18,2.90
2014,02,09,13,19,2.90
2014,02,09,13,20,2.90
2014,02,09,13,21,2.90
2014,02,09,13,22,2.90
2014,02,09,13,23,2.90
2014,02,09,13,24,2.90
2014,02,09,13,25,2.90
2014,02,09,13,26,2.90
2014,02,09,13,27,2.90
2014,02,09,13,28,2.90
2014,02,09,13,29,3.00
2014,02,09,13,30,3.00
2014,02,09,13,31,3.00
2014,02,09,13,32,3.00
2014,02,09,13,33,3.00
2014,02,09,13,34,3.00
2014,02,09,13,35,3.00
2014,02,09,13,36,2.90
2014,02,09,13,37,2.90
2014,02,09,13,38,2.90
2014,02,09,13,39,2.90
2014,02,09,13,40,2.90
2014,02,09,13,41,2.90
2014,02,09,13,42,2.90
2014,02,09,13,43,2.90
2014,02,09,13,44,3.00
2014,02,09,13,45,3.00
2014,02,09,13,46,3.00
2014,02,09,13,47,3.00
2014,02,09,13,48,3.00
2014,02,09,13,49,3.00
2014,02,09,13,50,3.00
2014,02,09,13,51,3.00
2014,02,09,13,52,3.00
2014,02,09,13,53,2.90
2014,02,09,13,54,2.90
2014,02,09,13,55,2.90
2014,02,09,13,56,2.90
2014,02,09,13,57,2.90
2014,02,09,13,58,2.90
2014,02,09,13,59,2.90
2014,02,09,14,00,2.90
2014,02,09,14,01,2.90
2014,02,09,14,02,2.90
2014,02,09,14,03,2.90
2014,02,09,14,04,2.90
2014,02,09,14,05,2.90
2014,02,09,14,06,2.90
2014,02,09,14,07,2.90
2014,02,09,14,08,2.90
2014,02,09,14,09,2.90
2014,02,09,14,10,2.90
2014,02,09,14,11,2.90
2014,02,09,14,12,3.00
2014,02,09,14,13,3.00
2014,02,09,14,14,3.00
2014,02,09,14,15,3.00
2014,02,09,14,16,3.00
2014,02,09,14,17,3.00
2014,02,09,14,18,3.00
2014,02,09,14,19,2.90
2014,02,09,14,20,2.90
2014,02,09,14,21,2.90
2014,02,09,14,22,2.90
2014,02,09,14,23,2.90
2014,02,09,14,24,2.90
2014,02,09,14,25,2.90
2014,02,09,14,26,2.90
2014,02,09,14,27,2.90
2014,02,09,14,28,2.90
2014,02,09,14,29,2.90
2014,02,09,14,30,2.80
2014,02,09,14,31,2.80
2014,02,09,14,32,2.80
2014,02,09,14,33,2.80
2014,02,09,14,34,2.80
2014,02,09,14,35,2.80
2014,02,09,14,36,2.80
2014,02,09,14,37,2.80
2014,02,09,14,38,2.80
2014,02,09,14,39,2.90
2014,02,09,14,40,2.90
2014,02,09,14,41,2.90
2014,02,09,14,42,2.90
2014,02,09,14,43,2.90
2014,02,09,14,44,2.90
2014,02,09,14,45,2.90
2014,02,09,14,46,2.90
2014,02,09,14,47,2.90
2014,02,09,14,48,2.90
2014,02,09,14,49,2.90
2014,02,09,14,50,2.90
2014,02,09,14,51,2.90
2014,02,09,14,52,2.90
2014,02,09,14,53,2.90
2014,02,09,14,54,2.90
2014,02,09,14,55,2.90
2014,02,09,14,56,2.90
2014,02,09,14,57,2.90
2014,02,09,14,58,2.90
2014,02,09,14,59,2.90
2014,02,09,15,00,2.90
2014,02,09,15,01,2.90
2014,02,09,15,02,2.90
2014,02,09,15,03,2.90
2014,02,09,15,04,2.90
2014,02,09,15,05,3.00
2014,02,09,15,06,3.00
2014,02,09,15,07,3.00
2014,02,09,15,08,3.00
2014,02,09,15,09,3.00
2014,02,09,15,10,3.00
2014,02,09,15,11,3.00
2014,02,09,15,12,3.00
2014,02,09,15,13,3.00
2014,02,09,15,14,3.00
2014,02,09,15,15,3.00
2014,02,09,15,16,3.00
2014,02,09,15,17,3.00
2014,02,09,15,18,3.00
2014,02,09,15,19,3.00
2014,02,09,15,20,3.00
2014,02,09,15,21,3.00
2014,02,09,15,22,3.00
2014,02,09,15,23,3.00
2014,02,09,15,24,3.10
2014,02,09,15,25,3.10
2014,02,09,15,26,3.10
2014,02,09,15,27,3.10
2014,02,09,15,28,3.10
2014,02,09,15,29,3.10
2014,02,09,15,30,3.20
2014,02,09,15,31,3.20
2014,02,09,15,32,3.20
2014,02,09,15,33,3.20
2014,02,09,15,34,3.20
2014,02,09,15,35,3.20
2014,02,09,15,36,3.20
2014,02,09,15,37,3.20
2014,02,09,15,38,3.20
2014,02,09,15,39,3.20
2014,02,09,15,40,3.20
2014,02,09,15,41,3.20
2014,02,09,15,42,3.20
2014,02,09,15,43,3.20
2014,02,09,15,44,3.20
2014,02,09,15,45,3.20
2014,02,09,15,46,3.20
2014,02,09,15,47,3.20
2014,02,09,15,48,3.20
2014,02,09,15,49,3.20
2014,02,09,15,50,3.20
2014,02,09,15,51,3.20
2014,02,09,15,52,3.20
2014,02,09,15,53,3.20
2014,02,09,15,54,3.20
2014,02,09,15,55,3.20
2014,02,09,15,56,3.20
2014,02,09,15,57,3.20
2014,02,09,15,58,3.20
2014,02,09,15,59,3.20
2014,02,09,16,00,3.20
2014,02,09,16,01,3.10
2014,02,09,16,02,3.10
2014,02,09,16,03,3.10
2014,02,09,16,04,3.10
2014,02,09,16,05,3.10
2014,02,09,16,06,3.10
2014,02,09,16,07,3.10
2014,02,09,16,08,3.10
2014,02,09,16,09,3.10
2014,02,09,16,10,3.10
2014,02,09,16,11,3.10
2014,02,09,16,12,3.10
2014,02,09,16,13,3.10
2014,02,09,16,14,3.10
2014,02,09,16,15,3.00
2014,02,09,16,16,3.00
2014,02,09,16,17,3.00
2014,02,09,16,18,3.00
2014,02,09,16,19,2.90
2014,02,09,16,20,2.90
2014,02,09,16,21,2.90
2014,02,09,16,22,2.90
2014,02,09,16,23,2.90
2014,02,09,16,24,2.90
2014,02,09,16,25,2.90
2014,02,09,16,26,2.90
2014,02,09,16,27,2.90
2014,02,09,16,28,2.90
2014,02,09,16,29,2.90
2014,02,09,16,30,2.90
2014,02,09,16,31,2.90
2014,02,09,16,32,2.80
2014,02,09,16,33,2.90
2014,02,09,16,34,2.90
2014,02,09,16,35,2.90
2014,02,09,16,36,2.90
2014,02,09,16,37,2.80
2014,02,09,16,38,2.80
2014,02,09,16,39,2.80
2014,02,09,16,40,2.80
2014,02,09,16,41,2.80
2014,02,09,16,42,2.80
2014,02,09,16,43,2.80
2014,02,09,16,44,2.80
2014,02,09,16,45,2.80
2014,02,09,16,46,2.80
2014,02,09,16,47,2.80
2014,02,09,16,48,2.80
2014,02,09,16,49,2.80
2014,02,09,16,50,2.80
2014,02,09,16,51,2.80
2014,02,09,16,52,2.80
2014,02,09,16,53,2.80
2014,02,09,16,54,2.80
2014,02,09,16,55,2.80
2014,02,09,16,56,2.80
2014,02,09,16,57,2.80
2014,02,09,16,58,2.80
2014,02,09,16,59,2.80
2014,02,09,17,00,2.80
2014,02,09,17,01,2.80
2014,02,09,17,02,2.80
2014,02,09,17,03,2.80
2014,02,09,17,04,2.80
2014,02,09,17,05,2.80
2014,02,09,17,06,2.80
2014,02,09,17,07,2.80
2014,02,09,17,08,2.80
2014,02,09,17,09,2.80
2014,02,09,17,10,2.80
2014,02,09,17,11,2.80
2014,02,09,17,12,2.80
2014,02,09,17,13,2.80
2014,02,09,17,14,2.80
2014,02,09,17,15,2.80
2014,02,09,17,16,2.80
2014,02,09,17,17,2.80
2014,02,09,17,18,2.80
2014,02,09,17,19,2.80
2014,02,09,17,20,2.80
2014,02,09,17,21,2.80
2014,02,09,17,22,2.80
2014,02,09,17,23,2.80
2014,02,09,17,24,2.80
2014,02,09,17,25,2.80
2014,02,09,17,26,2.80
2014,02,09,17,27,2.80
2014,02,09,17,28,2.80
2014,02,09,17,29,2.80
2014,02,09,17,30,2.80
2014,02,09,17,31,2.80
2014,02,09,17,32,2.80
2014,02,09,17,33,2.80
2014,02,09,17,34,2.80
2014,02,09,17,35,2.80
2014,02,09,17,36,2.80
2014,02,09,17,37,2.80
2014,02,09,17,38,2.80
2014,02,09,17,39,2.80
2014,02,09,17,40,2.80
2014,02,09,17,41,2.80
2014,02,09,17,42,2.80
2014,02,09,17,43,2.80
2014,02,09,17,44,2.80
2014,02,09,17,45,2.80
2014,02,09,17,46,2.80
2014,02,09,17,47,2.80
2014,02,09,17,48,2.80
2014,02,09,17,49,2.80
2014,02,09,17,50,2.80
2014,02,09,17,51,2.80
2014,02,09,17,52,2.80
2014,02,09,17,53,2.80
2014,02,09,17,54,2.80
2014,02,09,17,55,2.80
2014,02,09,17,56,2.80
2014,02,09,17,57,2.80
2014,02,09,17,58,2.80
2014,02,09,17,59,2.80
2014,02,09,18,00,2.80
2014,02,09,18,01,2.80
2014,02,09,18,02,2.80
2014,02,09,18,03,2.80
2014,02,09,18,04,2.80
2014,02,09,18,05,2.80
2014,02,09,18,06,2.80
2014,02,09,18,07,2.80
2014,02,09,18,08,2.80
2014,02,09,18,09,2.80